Location: Ponte Samoggia
(44.5667°N, 11.1333°E)
Time: 21:45:24
(UTC+00:00)

Cosmos 1943 Rocket - Pass Details

Date: 26 May 2022
Orbit: 810 x 845 km, 71.0° (Epoch: 29 June)

Event Time Altitude Azimuth Distance (km) Brightness Sun altitude
Rises 01:26:16 0° 332° (NNW) 3,413 5.8 -17.6°
Reaches altitude 10° 01:28:44 10° 329° (NNW) 2,475 5.0 -17.3°
Maximum altitude 01:34:22 65° 249° (WSW) 927 2.2 -16.8°
Enters shadow 01:39:16 14° 170° (S) 2,206 4.0 -16.3°
